Regional Weather Roundup
Issued by NWS Bismarck, ND

Home | Current Version | Previous Version | Text Only | Print | Product List | Glossary On
Versions: 1 2 3 4 5 6 7 8 9 10 11 12 13 14 15 16 17 18 19 20 21 22 23 24 25 26 27 28 29 30 31 32 33 34 35 36 37 38 39 40 41 42 43 44 45 46 47 48 49 50
903
ASUS43 KBIS 052010
RWRBIS

NWR BROADCAST TEXT
NATIONAL WEATHER SERVICE BISMARCK ND
200 PM CST MON DEC 05 2016

NOTE: "FAIR" INDICATES FEW OR NO CLOUDS BELOW 12,000 FEET WITH NO
SIGNIFICANT WEATHER AND/OR OBSTRUCTIONS TO VISIBILITY.


CITY           SKY/WX    TMP DP  RH WIND       PRES   REMARKS
WILLISTON      HVY SNOW  17  12  80 NW26G38   29.73R VSB 1/4 WCI  -2
MINOT          CLOUDY    23  20  88 W17       29.58R WCI   9
MINOT AFB      CLOUDY    21  19  93 NW13      29.57R WCI   9
BISMARCK       SNOW      28  26  92 NW20G29   29.60R VSB 1/4 WCI  15
DICKINSON      SNOW      18  14  84 NW22G35   29.66R VSB 1/4 WCI   1
GARRISON         N/A     24  19  81 W15       29.60R WCI  11
HETTINGER ARPT CLOUDY    20  15  81 NW31G40   29.68R BLWGSNOWWCI   1
JAMESTOWN      CLOUDY    29  26  89 NE10      29.51F WCI  20
BEACH          LGT SNOW  16  10  79 NW28G38   29.79R WCI  -4
CARRINGTON     MIX PCPN  27  25  93 N9        29.57F WCI  17
HAZEN          CLOUDY    25  19  80 NW23G31   29.65R WCI  10
LINTON         HVY SNOW  30  30 100 NW23      29.56R VSB 1/4 WCI  17
RUGBY          LGT SNOW  25  25 100 SE8       29.57S WCI  16
STANLEY        FLURRIES  21  21 100 NW15G23   29.61R WCI   8
TIOGA          SNOW      18  18 100 NW32G43   29.64R VSB 1/2 WCI  -3
WATFORD CITY   SNOW      16  14  93 NW22G30   29.72R VSB 1/2 WCI  -2
$$

CITY           SKY/WX    TMP DP  RH WIND       PRES   REMARKS
GRAND FORKS    CLOUDY    30  27  88 NE9       29.62F
GRAND FORKS AF CLOUDY    28  27  95 NE10      29.62F WCI  19
DEVILS LAKE    CLOUDY    26  25  96 E9        29.60F WCI  17
FARGO          CLOUDY    35  29  78 E6        29.57R
CANDO          CLOUDY    27  27 100 SE12      29.62F WCI  16
CAVALIER         N/A     28  27  93 E8        29.67F
GRAFTON        CLOUDY    30  28  93 E8        29.67S
GWINNER        CLOUDY    34  32  93 E7        29.50S
LANGDON        FOG       27  27 100 MISG      29.63S VSB<1/4
ROLLA          SNOW      23  23 100 SE13      29.59R VSB 1/2 WCI  11
WALHALLA         N/A     28  28 100 E9        29.67S WCI  20
$$

CITY           SKY/WX    TMP DP  RH WIND       PRES   REMARKS
ABERDEEN       PTSUNNY   38  29  70 NE3       29.45F
MOBRIDGE       SNOW      30  25  81 NW23G33   29.55R VSB 1/2 WCI  17
BUFFALO          N/A     24  15  68 NW38G49   29.64R WCI   5
RAPID CITY     CLOUDY    26  16  65 NW33G44   29.68R WCI   9
GLASGOW        CLOUDY    10   1  67 NW30G41   29.94R WCI -12
SIDNEY         SNOW      15  11  83 NW30G41   29.78S VSB 1/4 WCI  -5
WOLF POINT     LGT SNOW  13   5  70 NW31G41   29.91R WCI  -9
GLENDIVE       LGT SNOW  14   8  77 NW37G43   29.80R WCI  -9
MILES CITY     FLURRIES  18   9  68 NW23G31   29.90R WCI   0
BAKER          LGT SNOW  19  12  74 NW28G37   29.77R WCI   1
$$

CITY           SKY/WX    TMP DP  RH WIND       PRES   REMARKS
BILLINGS       CLOUDY    23   8  52 NW18G26   29.92R WCI   9
GREAT FALLS    LGT SNOW  12   6  77 NW9       30.03S WCI   0
REGINA         LGT SNOW  16  12  86 NW23G30   29.81R BLWGSNOWWCI  -2
ESTEVAN        SNOW      21  19  93 N21       29.65R VSB 3/8 WCI   6
$$





USA.gov is the U.S. government's official web portal to all federal, state and local government web resources and services.